User: anonymous   Login
Location: Brno
(49.2000°N, 16.6330°E)
Time: 22:03:14
(UTC+01:00)
Language:

Cosmos 1459 Rocket - Orbit

View from above orbital plane
View from above orbital plane
View from above satellite
View from above satellite

Ground track
Ground track

The orbit data is extracted from the following two-line orbital elements,

1 14059U 83042B   18050.91257189 +.00000125 +00000-0 +10838-3 0  9993
2 14059 082.9689 238.0447 0041485 291.7916 067.8830 13.78615765749627
Epoch (UTC): 19 February 2018 21:54:06
Eccentricity: 0.0041485
inclination: 82.9689°
perigee height: 938 km
apogee height: 999 km
right ascension of ascending node: 238.0447°
argument of perigee: 291.7916°
revolutions per day: 13.78615765
mean anomaly at epoch: 67.8830°
orbit number at epoch: 74962

The dashed part of the orbit path shows where the satellite is in the earth's shadow,  

DLR